Pecos, TX

2:22 AM CST on January 24, 2017 (GMT -0600)
Pecos Municipal

Weather History for KPEQ - March, 2013

Change the Weather History Date:

Saturday, March 30, 2013

  Actual Average Record
Temperature  
Mean Temperature 64 °F -  
Max Temperature 86 °F 77 °F 103 °F (1946)
Min Temperature 41 °F 42 °F 18 °F (1987)
Degree Days  
Heating Degree Days 2    
Growing Degree Days 14 (Base 50)    
Moisture  
Dew Point 39 °F    
Average Humidity 52    
Maximum Humidity 94    
Minimum Humidity 12    
Precipitation  
Precipitation 0.00 in - - ()
Sea Level Pressure  
Sea Level Pressure 29.99 in    
Wind  
Wind Speed 6 mph (NW)    
Max Wind Speed 13 mph    
Max Gust Speed 17 mph    
Visibility 10 miles    
Events      
Averages and records for this station are not official NWS values.
T = Trace of Precipitation, MM = Missing Value Source: NWS Daily Summary

Daily Weather History Graph

Daily Weather History Graph

Search for Another Location

Airport or City:

Trip Planner

Search our weather history database for the weather conditions in past years. The results will help you decide how hot, cold, wet, or windy it might be!

Date:

Astronomy

Mar. 30, 2013 Rise Set
Actual Time 7:44 AM CDT 8:12 PM CDT
Civil Twilight 7:20 AM CDT 8:36 PM CDT
Nautical Twilight 6:51 AM CDT 9:05 PM CDT
Astronomical Twilight 6:22 AM CDT 9:34 PM CDT
Moon No Moon Rise 9:56 AM CDT (3/30)
Length of Visible Light 13h 16m
Length of Day
12h 27m
Waning Gibbous, 86% of the Moon is Illuminated
Mar 30
Waning Gibbous
Apr 2
Last Quarter
Apr 10
New
Apr 18
First Quarter
Apr 25
Full

Hourly Weather History & Observations

Time (CDT) Temp. Windchill Dew Point Humidity Pressure Visibility Wind Dir Wind Speed Gust Speed Precip Events Conditions
12:15 AM 61.5 °F - 50.4 °F 67% 30.02 in 10.0 mi ENE 9.2 mph - N/A   Clear
12:35 AM 61.3 °F - 51.4 °F 70% 30.02 in 10.0 mi ENE 11.5 mph - N/A   Clear
12:55 AM 61.0 °F - 52.0 °F 72% 30.02 in 10.0 mi East 12.7 mph 17.3 mph N/A   Clear
1:15 AM 59.9 °F - 52.2 °F 76% 30.02 in 10.0 mi ENE 9.2 mph - N/A   Clear
1:35 AM 59.2 °F - 52.3 °F 78% 30.02 in 10.0 mi East 9.2 mph - N/A   Clear
1:55 AM 57.7 °F - 51.8 °F 81% 30.02 in 10.0 mi East 4.6 mph - N/A   Clear
2:15 AM 56.5 °F - 51.3 °F 83% 30.02 in 10.0 mi East 3.5 mph - N/A   Clear
2:35 AM 55.2 °F - 50.7 °F 85% 30.03 in 10.0 mi Calm Calm - N/A   Clear
2:55 AM 52.3 °F - 47.7 °F 84% 30.03 in 10.0 mi West 3.5 mph - N/A   Clear
3:15 AM 50.7 °F - 47.5 °F 89% 30.03 in 10.0 mi West 4.6 mph - N/A   Clear
3:35 AM 49.8 °F - 46.6 °F 89% 30.03 in 10.0 mi NW 5.8 mph - N/A   Clear
3:55 AM 49.6 °F - 46.6 °F 89% 30.02 in 10.0 mi NW 4.6 mph - N/A   Clear
4:15 AM 48.2 °F - 45.1 °F 89% 30.02 in 10.0 mi NNW 5.8 mph - N/A   Clear
4:35 AM 47.8 °F - 45.0 °F 90% 30.02 in 7.0 mi NW 4.6 mph - N/A   Clear
4:55 AM 47.3 °F - 44.6 °F 90% 30.02 in 10.0 mi West 4.6 mph - N/A   Clear
5:15 AM 45.5 °F 43.2 °F 43.0 °F 91% 30.02 in 7.0 mi WNW 4.6 mph - N/A   Clear
5:35 AM 45.0 °F 42.6 °F 42.8 °F 92% 30.02 in 7.0 mi NW 4.6 mph - N/A   Clear
5:55 AM 44.8 °F - 42.4 °F 91% 30.02 in 7.0 mi Calm Calm - N/A   Clear
6:15 AM 43.9 °F 40.5 °F 41.5 °F 91% 30.02 in 10.0 mi West 5.8 mph - N/A   Clear
6:35 AM 43.7 °F 40.3 °F 41.9 °F 93% 30.03 in 10.0 mi WSW 5.8 mph - N/A   Clear
6:55 AM 43.2 °F 39.7 °F 41.0 °F 92% 30.03 in 10.0 mi WSW 5.8 mph - N/A   Clear
7:15 AM 41.9 °F 38.2 °F 39.2 °F 90% 30.02 in 10.0 mi West 5.8 mph - N/A   Clear
7:35 AM 42.4 °F 40.7 °F 40.1 °F 91% 30.02 in 10.0 mi WNW 3.5 mph - N/A   Clear
7:55 AM 42.4 °F - 40.1 °F 91% 30.03 in 10.0 mi Calm Calm - N/A   Clear
8:15 AM 42.8 °F 39.3 °F 41.0 °F 93% 30.04 in 7.0 mi WNW 5.8 mph - N/A   Clear
8:35 AM 45.7 °F 44.4 °F 44.1 °F 94% 30.05 in 7.0 mi NW 3.5 mph - N/A   Clear
8:55 AM 50.7 °F - 48.6 °F 92% 30.05 in 7.0 mi NNW 8.1 mph - N/A   Clear
9:15 AM 51.4 °F - 48.2 °F 89% 30.06 in 10.0 mi NNW 10.4 mph - N/A   Scattered Clouds
9:35 AM 54.0 °F - 50.5 °F 88% 30.06 in 7.0 mi NW 9.2 mph - N/A   Scattered Clouds
9:55 AM 56.5 °F - 51.8 °F 84% 30.07 in 10.0 mi NNW 10.4 mph - N/A   Clear
10:15 AM 59.5 °F - 52.2 °F 77% 30.07 in 10.0 mi NW 9.2 mph - N/A   Clear
10:35 AM 61.9 °F - 52.3 °F 71% 30.07 in 10.0 mi NW 10.4 mph - N/A   Clear
10:55 AM 64.2 °F - 53.1 °F 67% 30.07 in 10.0 mi NW 9.2 mph - N/A   Clear
11:15 AM 66.4 °F - 52.0 °F 60% 30.06 in 10.0 mi NNW 6.9 mph - N/A   Clear
11:35 AM 67.3 °F - 52.0 °F 58% 30.06 in 10.0 mi NW 6.9 mph - N/A   Clear
12:15 PM 70.7 °F - 48.9 °F 46% 30.05 in 10.0 mi WNW 8.1 mph - N/A   Clear
12:35 PM 73.0 °F - 47.8 °F 41% 30.05 in 10.0 mi NW 8.1 mph - N/A   Clear
12:55 PM 75.0 °F - 45.0 °F 34% 30.04 in 10.0 mi NNW 5.8 mph - N/A   Clear
1:15 PM 76.3 °F - 41.7 °F 29% 30.04 in 10.0 mi NW 3.5 mph - N/A   Clear
1:35 PM 77.7 °F - 40.6 °F 26% 30.03 in 10.0 mi NW 5.8 mph - N/A   Clear
1:55 PM 78.8 °F - 38.1 °F 23% 30.02 in 10.0 mi NW 4.6 mph - N/A   Clear
2:15 PM 79.7 °F - 34.7 °F 20% 30.01 in 10.0 mi NW 5.8 mph - N/A   Clear
2:35 PM 81.1 °F - 34.7 °F 19% 30.00 in 10.0 mi NNW 3.5 mph - N/A   Clear
2:55 PM 82.4 °F - 32.5 °F 17% 29.99 in 10.0 mi West 4.6 mph - N/A   Clear
3:15 PM 82.9 °F - 32.4 °F 16% 29.98 in 10.0 mi West 5.8 mph - N/A   Clear
3:35 PM 84.0 °F - 32.0 °F 15% 29.97 in 10.0 mi NW 6.9 mph - N/A   Clear
3:55 PM 84.6 °F - 30.6 °F 14% 29.96 in 10.0 mi West 3.5 mph - N/A   Clear
4:15 PM 84.9 °F - 29.7 °F 14% 29.95 in 10.0 mi NNW 5.8 mph - N/A   Clear
4:35 PM 85.8 °F - 28.8 °F 13% 29.93 in 10.0 mi West 3.5 mph - N/A   Clear
4:55 PM 86.7 °F - 27.5 °F 12% 29.92 in 10.0 mi WNW 3.5 mph - N/A   Clear
5:15 PM 86.0 °F - 28.4 °F 12% 29.91 in 10.0 mi WSW 5.8 mph - N/A   Clear
5:35 PM 85.6 °F - 26.6 °F 12% 29.91 in 10.0 mi NNW 4.6 mph - N/A   Clear
6:15 PM 84.4 °F - 26.1 °F 12% 29.90 in 10.0 mi Calm Calm - N/A   Clear
6:35 PM 84.4 °F - 26.2 °F 12% 29.89 in 10.0 mi North 3.5 mph - N/A   Clear
6:55 PM 84.4 °F - 26.8 °F 12% 29.89 in 10.0 mi NNW 3.5 mph - N/A   Clear
7:15 PM 83.1 °F - 26.2 °F 13% 29.88 in 10.0 mi Calm Calm - N/A   Clear
7:35 PM 81.3 °F - 27.1 °F 14% 29.89 in 10.0 mi NNE 4.6 mph - N/A   Clear
8:15 PM 78.3 °F - 26.4 °F 15% 29.89 in 10.0 mi ENE 5.8 mph - N/A   Clear
8:35 PM 76.3 °F - 27.5 °F 17% 29.89 in 10.0 mi NNE 3.5 mph - N/A   Clear
9:15 PM 74.1 °F - 25.9 °F 17% 29.90 in 10.0 mi East 3.5 mph - N/A   Scattered Clouds
9:35 PM 80.8 °F - 26.6 °F 14% 29.91 in 10.0 mi NW 3.5 mph - N/A   Scattered Clouds
9:55 PM 75.6 °F - 25.7 °F 16% 29.92 in 10.0 mi SSW 3.5 mph - N/A   Scattered Clouds
10:15 PM 74.3 °F - 25.9 °F 17% 29.92 in 10.0 mi West 4.6 mph - N/A   Scattered Clouds
10:35 PM 71.2 °F - 26.6 °F 19% 29.93 in 10.0 mi West 6.9 mph - N/A   Scattered Clouds
10:55 PM 70.3 °F - 27.0 °F 20% 29.93 in 10.0 mi Calm Calm - N/A   Clear
11:15 PM 70.5 °F - 28.6 °F 21% 29.94 in 10.0 mi West 5.8 mph - N/A   Scattered Clouds
11:35 PM 69.1 °F - 27.1 °F 21% 29.95 in 10.0 mi SE 4.6 mph - N/A   Scattered Clouds
11:55 PM 68.4 °F - 27.3 °F 22% 29.95 in 10.0 mi Calm Calm - N/A   Mostly Cloudy